CW9540 Weather Reports


Display with metric or nautical units.
time (UTC)temp
F
wind
direction
speed
MPH
gust
MPH
rain 1hr
in
rain 24hr
in
rain mn
in
humidity
%
barometer
mb
20260505053052 65 210 3.0 9.0 0.00 0.00 0.00 60 1001.8
20260505053004 66 185 3.0 8.0 0.00 0.00 0.00 61 1000.4
20260505052503 66 206 3.0 9.0 0.00 0.00 0.00 60 1000.4
20260505051550 66 212 5.0 11.0 0.00 0.00 0.00 59 1001.6
20260505051003 66 200 3.0 10.0 0.00 0.00 0.00 60 1000.3
20260505041556 65 207 3.0 7.0 0.00 0.00 0.00 55 1002.1
20260505041505 66 205 3.0 7.0 0.00 0.00 0.00 55 1000.7
20260505041003 66 185 3.0 7.0 0.00 0.00 0.00 55 1000.6
20260505040504 66 210 3.0 6.0 0.00 0.00 0.00 55 1000.6
20260505040100 66 175 3.0 10.0 0.00 0.00 0.00 54 1002.0
20260505040004 66 205 4.0 7.0 0.00 0.00 0.00 55 1000.6
20260505035503 66 188 4.0 10.0 0.00 0.00 0.00 55 1000.8
20260505034547 66 193 3.0 12.0 0.00 0.00 0.00 53 1002.2
20260505034504 66 199 4.0 7.0 0.00 0.00 0.00 54 1000.9
20260505034004 66 211 6.0 12.0 0.00 0.00 0.00 54 1000.9
20260505033503 65 213 4.0 8.0 0.00 0.00 0.00 55 1001.0
20260505033054 64 225 4.0 13.0 0.00 0.00 0.00 54 1002.2
20260505033004 64 208 5.0 8.0 0.00 0.00 0.00 55 1001.0
20260505032504 62 194 6.0 13.0 0.00 0.00 0.00 56 1000.9
20260505032003 58 205 5.0 12.0 0.00 0.00 0.00 62 1000.9
20260505031553 56 245 2.0 4.0 0.00 0.00 0.00 67 1002.3
20260505031004 57 211 1.0 2.0 0.00 0.00 0.00 68 1000.6
20260505030504 56 204 1.0 2.0 0.00 0.00 0.00 68 1000.6
20260505030049 56 195 1.0 2.0 0.00 0.00 0.00 68 1002.1
20260505030003 56 196 1.0 2.0 0.00 0.00 0.00 68 1000.7
20260505025504 56 131 1.0 2.0 0.00 0.00 0.00 69 1000.6
20260505025004 57 181 2.0 2.0 0.00 0.00 0.00 68 1000.7
20260505024547 56 197 1.0 2.0 0.00 0.00 0.00 68 1002.1
20260505024504 57 199 1.0 2.0 0.00 0.00 0.00 68 1000.7
20260505024004 57 181 1.0 2.0 0.00 0.00 0.00 67 1000.6
20260505023503 58 159 0.0 1.0 0.00 0.00 0.00 66 1000.6
20260505023048 57 0 0.0 1.0 0.00 0.00 0.00 65 1002.0
20260505023004 58 121 0.0 1.0 0.00 0.00 0.00 66 1000.6
20260505022503 58 122 0.0 1.0 0.00 0.00 0.00 65 1000.7
20260505022003 58 89 0.0 1.0 0.00 0.00 0.00 64 1000.8
20260505021550 58 178 0.0 1.0 0.00 0.00 0.00 63 1002.2
20260505021504 59 173 0.0 1.0 0.00 0.00 0.00 64 1000.9
20260505020503 59 129 0.0 1.0 0.00 0.00 0.00 62 1001.0
20260505020054 59 0 0.0 1.0 0.00 0.00 0.00 62 1002.4
20260505020004 60 116 0.0 1.0 0.00 0.00 0.00 62 1001.1
20260505015503 60 90 1.0 1.0 0.00 0.00 0.00 61 1001.1
20260505015004 60 120 0.0 1.0 0.00 0.00 0.00 59 1001.1
20260505014550 60 0 0.0 1.0 0.00 0.00 0.00 58 1002.5
20260505014504 61 129 0.0 0.0 0.00 0.00 0.00 59 1001.2
20260505014003 61 195 1.0 1.0 0.00 0.00 0.00 58 1001.1
20260505013503 62 189 0.0 1.0 0.00 0.00 0.00 57 1001.0
20260505013050 62 0 0.0 2.0 0.00 0.00 0.00 56 1002.4
20260505013004 62 200 0.0 1.0 0.00 0.00 0.00 56 1001.0
20260505012004 63 119 0.0 1.0 0.00 0.00 0.00 54 1000.9
20260505011548 63 0 0.0 1.0 0.00 0.00 0.00 52 1002.2
20260505011004 64 152 0.0 1.0 0.00 0.00 0.00 51 1000.9
20260505010503 65 175 0.0 1.0 0.00 0.00 0.00 48 1000.8
20260505010058 65 0 0.0 1.0 0.00 0.00 0.00 48 1002.1
20260505010003 66 129 1.0 1.0 0.00 0.00 0.00 48 1000.7
20260505005504 66 136 0.0 1.0 0.00 0.00 0.00 46 1000.7
20260505005004 67 135 0.0 1.0 0.00 0.00 0.00 45 1000.6
20260505004548 67 0 0.0 2.0 0.00 0.00 0.00 43 1002.0
20260505004503 68 133 0.0 1.0 0.00 0.00 0.00 44 1000.6
20260505004003 69 103 1.0 2.0 0.00 0.00 0.00 43 1000.6
20260505003504 70 114 1.0 2.0 0.00 0.00 0.00 42 1000.7
20260505003054 70 135 0.0 1.0 0.00 0.00 0.00 39 1002.1
20260505003004 70 124 0.0 1.0 0.00 0.00 0.00 40 1000.7
20260505002506 71 169 0.0 1.0 0.00 0.00 0.00 37 1000.6
20260505001552 71 0 0.0 3.0 0.00 0.00 0.00 36 1002.1
20260505001504 71 235 0.0 2.0 0.00 0.00 0.00 37 1000.7
20260505000503 72 252 1.0 3.0 0.00 0.00 0.00 36 1000.6
20260505000100 72 236 1.0 3.0 0.00 0.00 0.00 34 1001.9
20260505000004 72 225 1.0 3.0 0.00 0.00 0.00 35 1000.6
20260504235504 73 240 1.0 3.0 0.00 0.00 0.00 35 1000.6
20260504235004 73 294 1.0 5.0 0.00 0.00 0.00 34 1000.6
20260504234604 73 235 1.0 3.0 0.00 0.00 0.00 34 1001.8
20260504234504 73 290 2.0 3.0 0.00 0.00 0.00 35 1000.5
20260504233503 74 202 2.0 5.0 0.00 0.00 0.00 33 1000.4
20260504233051 74 196 1.0 5.0 0.00 0.00 0.00 32 1001.7
20260504233004 74 201 2.0 3.0 0.00 0.00 0.00 33 1000.4
20260504232504 74 217 1.0 5.0 0.00 0.00 0.00 33 1000.4
20260504231545 74 227 3.0 7.0 0.00 0.00 0.00 32 1001.7
20260504231503 75 202 3.0 7.0 0.00 0.00 0.00 32 1000.4
20260504231004 75 221 1.0 3.0 0.00 0.00 0.00 32 1000.5
20260504230504 75 258 2.0 6.0 0.00 0.00 0.00 31 1000.4
20260504230054 74 145 2.0 6.0 0.00 0.00 0.00 31 1001.7
20260504230003 75 252 3.0 5.0 0.00 0.00 0.00 31 1000.4
20260504225004 75 211 4.0 7.0 0.00 0.00 0.00 31 1000.3
20260504224553 75 208 2.0 10.0 0.00 0.00 0.00 31 1001.6
20260504224503 75 205 3.0 6.0 0.00 0.00 0.00 31 1000.3
20260504224004 76 229 6.0 10.0 0.00 0.00 0.00 30 1000.3
20260504223503 76 212 6.0 12.0 0.00 0.00 0.00 29 1000.4
20260504223050 75 233 5.0 11.0 0.00 0.00 0.00 30 1001.6
20260504223003 76 229 5.0 12.0 0.00 0.00 0.00 29 1000.3
20260504222504 76 221 6.0 10.0 0.00 0.00 0.00 30 1000.3
20260504222004 76 221 6.0 10.0 0.00 0.00 0.00 29 1000.3
20260504221549 76 235 7.0 18.0 0.00 0.00 0.00 27 1001.6
20260504221504 76 236 6.0 18.0 0.00 0.00 0.00 29 1000.3
20260504221003 77 224 5.0 10.0 0.00 0.00 0.00 29 1000.3
20260504220503 77 226 4.0 12.0 0.00 0.00 0.00 30 1000.3
20260504220101 76 161 4.0 9.0 0.00 0.00 0.00 29 1001.7
20260504220004 77 207 5.0 9.0 0.00 0.00 0.00 29 1000.3
20260504215504 77 242 4.0 9.0 0.00 0.00 0.00 30 1000.4
20260504215004 77 220 3.0 10.0 0.00 0.00 0.00 30 1000.3
20260504214555 76 215 5.0 17.0 0.00 0.00 0.00 28 1001.7
20260504214504 77 209 6.0 17.0 0.00 0.00 0.00 30 1000.4
20260504213503 78 207 3.0 9.0 0.00 0.00 0.00 30 1000.4
20260504213107 77 276 5.0 14.0 0.00 0.00 0.00 29 1001.8
20260504213004 77 209 6.0 14.0 0.00 0.00 0.00 29 1000.5
20260504212503 77 202 5.0 10.0 0.00 0.00 0.00 30 1000.5
20260504212003 76 234 7.0 15.0 0.00 0.00 0.00 31 1000.5
20260504211551 76 199 5.0 13.0 0.00 0.00 0.00 31 1001.9
20260504211504 76 217 5.0 12.0 0.00 0.00 0.00 31 1000.5
20260504211004 77 236 6.0 13.0 0.00 0.00 0.00 29 1000.7
20260504210503 78 239 3.0 9.0 0.00 0.00 0.00 29 1000.9
20260504210048 77 264 3.0 14.0 0.00 0.00 0.00 30 1002.0
20260504205503 77 262 4.0 12.0 0.00 0.00 0.00 31 1000.8
20260504205003 77 247 8.0 18.0 0.00 0.00 0.00 30 1000.9
20260504204559 77 174 4.0 12.0 0.00 0.00 0.00 31 1002.2
20260504204503 77 248 5.0 12.0 0.00 0.00 0.00 32 1000.9
20260504204004 77 235 4.0 7.0 0.00 0.00 0.00 33 1001.0
20260504203504 76 284 5.0 13.0 0.00 0.00 0.00 31 1001.0
20260504203049 76 284 3.0 15.0 0.00 0.00 0.00 31 1002.3
20260504203003 77 224 3.0 12.0 0.00 0.00 0.00 31 1001.0
20260504202503 76 271 6.0 15.0 0.00 0.00 0.00 32 1001.1
20260504202004 77 250 7.0 13.0 0.00 0.00 0.00 31 1001.3
20260504201544 76 237 4.0 19.0 0.00 0.00 0.00 31 1002.5
20260504201503 76 243 4.0 15.0 0.00 0.00 0.00 32 1001.2
20260504201004 76 221 7.0 20.0 0.00 0.00 0.00 30 1001.4
20260504200503 76 208 6.0 16.0 0.00 0.00 0.00 32 1001.4
20260504200053 76 184 6.0 17.0 0.00 0.00 0.00 32 1002.7
20260504195504 76 229 6.0 17.0 0.00 0.00 0.00 32 1001.5
20260504195003 75 244 6.0 12.0 0.00 0.00 0.00 32 1001.5
20260504194549 75 228 6.0 17.0 0.00 0.00 0.00 32 1002.9
20260504194504 75 220 6.0 17.0 0.00 0.00 0.00 32 1001.8
20260504194004 77 240 5.0 15.0 0.00 0.00 0.00 32 1001.9
20260504193059 76 239 4.0 20.0 0.00 0.00 0.00 35 1003.0
20260504192504 74 278 6.0 20.0 0.00 0.00 0.00 35 1001.9
20260504192004 75 235 9.0 18.0 0.00 0.00 0.00 34 1002.1
20260504191548 75 204 8.0 13.0 0.00 0.00 0.00 31 1003.1
20260504191504 76 199 8.0 13.0 0.00 0.00 0.00 32 1002.0
20260504191004 75 198 4.0 13.0 0.00 0.00 0.00 36 1002.1
20260504190504 75 246 9.0 15.0 0.00 0.00 0.00 34 1002.2
20260504190053 76 201 5.0 17.0 0.00 0.00 0.00 35 1003.3
20260504190004 76 227 6.0 12.0 0.00 0.00 0.00 36 1002.2
20260504185504 75 267 5.0 17.0 0.00 0.00 0.00 36 1002.2
20260504185004 75 214 3.0 9.0 0.00 0.00 0.00 37 1002.2
20260504184544 73 209 5.0 17.0 0.00 0.00 0.00 36 1003.4
20260504184503 74 217 6.0 14.0 0.00 0.00 0.00 36 1002.3
20260504184004 75 223 8.0 17.0 0.00 0.00 0.00 38 1002.5
20260504183504 75 211 4.0 15.0 0.00 0.00 0.00 37 1002.5
20260504183055 75 274 6.0 11.0 0.00 0.00 0.00 38 1003.6
20260504183003 75 202 7.0 10.0 0.00 0.00 0.00 36 1002.6
20260504182503 75 206 3.0 8.0 0.00 0.00 0.00 38 1002.7
20260504182003 74 245 6.0 12.0 0.00 0.00 0.00 37 1002.7
20260504181546 74 271 3.0 14.0 0.00 0.00 0.00 37 1003.8
20260504181003 73 215 8.0 14.0 0.00 0.00 0.00 38 1002.8
20260504180504 73 220 8.0 18.0 0.00 0.00 0.00 37 1002.8
20260504180122 72 229 9.0 17.0 0.00 0.00 0.00 38 1003.9
20260504180004 73 231 10.0 17.0 0.00 0.00 0.00 38 1002.8
20260504175503 74 218 5.0 16.0 0.00 0.00 0.00 40 1002.9
20260504175004 74 217 5.0 14.0 0.00 0.00 0.00 40 1002.9
20260504174548 72 206 6.0 15.0 0.00 0.00 0.00 41 1004.0
20260504174504 73 238 7.0 14.0 0.00 0.00 0.00 40 1003.0
20260504174003 72 246 6.0 14.0 0.00 0.00 0.00 40 1003.0
20260504173503 72 225 5.0 12.0 0.00 0.00 0.00 41 1003.0
20260504173046 72 228 6.0 12.0 0.00 0.00 0.00 42 1004.2
20260504173003 72 219 6.0 12.0 0.00 0.00 0.00 40 1003.0
20260504172503 75 201 3.0 9.0 0.00 0.00 0.00 41 1003.0
20260504172004 71 209 4.0 15.0 0.00 0.00 0.00 43 1003.1
20260504171547 71 46 6.0 16.0 0.00 0.00 0.00 41 1004.2
20260504171504 71 259 6.0 16.0 0.00 0.00 0.00 40 1003.2
20260504171003 73 182 6.0 12.0 0.00 0.00 0.00 40 1003.2
20260504170503 72 231 4.0 12.0 0.00 0.00 0.00 43 1003.2
20260504151003 65 216 5.0 12.0 0.00 0.00 0.00 46 1004.2
20260504141004 63 232 6.0 12.0 0.00 0.00 0.00 47 1004.3
20260504140503 62 201 7.0 13.0 0.00 0.00 0.00 47 1004.3
20260504130503 59 214 6.0 12.0 0.00 0.00 0.00 48 1005.0
20260504100503 53 205 3.0 8.0 0.00 0.00 0.00 53 1005.0
20260504082004 51 199 3.0 3.0 0.00 0.00 0.00 57 1005.8
20260504081551 51 199 2.0 6.0 0.00 0.00 0.00 56 1006.7
20260504080504 51 211 2.0 3.0 0.00 0.00 0.00 57 1005.9